Kaneohe MCBH, HI

11:24 AM HST on June 26, 2017 (GMT -1000)
Kaneohe Bay Marine Corps Air Facility

Weather History for PHNG - September, 2013

Change the Weather History Date:

Monday, September 23, 2013

  Actual Average Record
Temperature  
Mean Temperature 78 °F -  
Max Temperature 84 °F 81 °F 89 °F (2015)
Min Temperature 73 °F 71 °F 35 °F (2005)
Cooling Degree Days 14    
Growing Degree Days 28 (Base 50)    
Moisture  
Dew Point 69 °F    
Average Humidity 72    
Maximum Humidity 83    
Minimum Humidity 61    
Precipitation  
Precipitation 0.00 in - - ()
Sea Level Pressure  
Sea Level Pressure 29.98 in    
Wind  
Wind Speed 7 mph (ENE)    
Max Wind Speed 12 mph    
Max Gust Speed 17 mph    
Visibility 9 miles    
Events      
Averages and records for this station are not official NWS values.
T = Trace of Precipitation, MM = Missing Value Source: NWS Daily Summary

Daily Weather History Graph

Daily Weather History Graph

Search for Another Location

Airport or City:

Trip Planner

Search our weather history database for the weather conditions in past years. The results will help you decide how hot, cold, wet, or windy it might be!

Date:

Astronomy

Sep. 23, 2013 Rise Set
Actual Time 6:20 AM HST 6:25 PM HST
Civil Twilight 5:58 AM HST 6:48 PM HST
Nautical Twilight 5:32 AM HST 7:13 PM HST
Astronomical Twilight 5:06 AM HST 7:39 PM HST
Moon 9:41 PM HST (9/23) 10:16 AM HST (9/23)
Length of Visible Light 12h 50m
Length of Day
12h 05m
Waning Gibbous, 79% of the Moon is Illuminated
Sep 23
Waning Gibbous
Sep 26
Last Quarter
Oct 4
New
Oct 11
First Quarter
Oct 18
Full

Hourly Weather History & Observations

Time (HST) Temp. Heat Index Dew Point Humidity Pressure Visibility Wind Dir Wind Speed Gust Speed Precip Events Conditions
12:57 AM 73.4 °F - 66.9 °F 80% 30.00 in 7.0 mi Variable 3.5 mph - N/A   Clear
1:57 AM 73.4 °F - 68.0 °F 83% 29.99 in 7.0 mi ENE 4.6 mph - N/A   Partly Cloudy
2:57 AM 73.4 °F - 68.0 °F 83% 29.98 in 7.0 mi ENE 8.1 mph - N/A   Scattered Clouds
3:57 AM 73.4 °F - 68.0 °F 83% 29.98 in 7.0 mi ENE 9.2 mph - N/A   Scattered Clouds
4:57 AM 73.4 °F - 68.0 °F 83% 29.98 in 7.0 mi ENE 4.6 mph - N/A   Overcast
5:57 AM 73.4 °F - 68.0 °F 83% 29.99 in 7.0 mi East 5.8 mph - N/A   Scattered Clouds
6:57 AM 77.0 °F - 68.0 °F 74% 30.00 in 7.0 mi ENE 5.8 mph - 0.00 in   Mostly Cloudy
7:57 AM 75.2 °F - 68.0 °F 78% 30.01 in 7.0 mi ENE 5.8 mph - N/A   Mostly Cloudy
8:57 AM 80.6 °F 83.6 °F 69.1 °F 68% 30.02 in 10.0 mi ENE 5.8 mph - 0.00 in   Scattered Clouds
9:57 AM 82.0 °F 85.5 °F 69.1 °F 65% 30.03 in 10.0 mi ENE 6.9 mph - N/A   Mostly Cloudy
10:57 AM 82.0 °F 85.9 °F 70.0 °F 67% 30.01 in 10.0 mi ENE 8.1 mph - N/A   Scattered Clouds
11:57 AM 82.6 °F 86.6 °F 70.0 °F 66% 30.00 in 10.0 mi NE 10.4 mph - N/A   Mostly Cloudy
12:57 PM 82.0 °F 85.9 °F 70.0 °F 67% 29.98 in 10.0 mi NE 9.2 mph - N/A   Mostly Cloudy
1:57 PM 84.7 °F 89.1 °F 70.0 °F 61% 29.96 in 10.0 mi NNE 8.1 mph - N/A   Mostly Cloudy
2:57 PM 84.7 °F 89.7 °F 71.1 °F 63% 29.95 in 10.0 mi NE 9.2 mph 16.1 mph N/A   Mostly Cloudy
3:57 PM 84.0 °F 88.4 °F 70.0 °F 63% 29.94 in 10.0 mi ENE 10.4 mph - N/A   Mostly Cloudy
4:57 PM 81.7 °F 85.4 °F 70.0 °F 68% 29.95 in 10.0 mi NE 11.5 mph 16.1 mph N/A   Mostly Cloudy
5:57 PM 80.2 °F 83.5 °F 70.0 °F 71% 29.96 in 10.0 mi ENE 8.1 mph 16.1 mph N/A   Mostly Cloudy
6:57 PM 79.0 °F - 69.1 °F 72% 29.97 in 10.0 mi ENE 5.8 mph - N/A   Mostly Cloudy
7:57 PM 79.0 °F - 69.1 °F 72% 29.99 in 10.0 mi ENE 10.4 mph - N/A   Mostly Cloudy
8:57 PM 78.4 °F - 70.0 °F 75% 29.99 in 10.0 mi NE 9.2 mph 17.3 mph 0.00 in   Mostly Cloudy
9:57 PM 78.4 °F - 68.0 °F 70% 29.99 in 10.0 mi ENE 10.4 mph 17.3 mph N/A   Scattered Clouds
10:57 PM 78.3 °F - 69.1 °F 73% 29.99 in 10.0 mi ENE 8.1 mph - N/A   Scattered Clouds
11:57 PM 78.6 °F - 68.0 °F 70% 29.98 in 10.0 mi ENE 8.1 mph - N/A   Scattered Clouds